Total_Precipitation_Accumulation
0.73 0.65 0.54 0.52 0.48 0.44 0.42 0.38 0.33 0.28 0.25 0.22 0.18 0.15 0.14 0.14 0.13 0.13 0.11 0.08 0.09 0.14 0.22 0.30 0.38 0.43 0.50 0.56 0.60 0.59 0.53 0.46 0.43 0.40 0.39 0.39 0.40 0.40 0.43 0.46 0.47 0.49 0.50
0.79 0.68 0.56 0.50 0.47 0.43 0.40 0.40 0.38 0.34 0.31 0.26 0.21 0.17 0.14 0.14 0.13 0.12 0.11 0.09 0.09 0.11 0.15 0.22 0.34 0.45 0.57 0.67 0.71 0.72 0.67 0.63 0.57 0.51 0.48 0.45 0.43 0.42 0.44 0.46 0.48 0.49 0.51
0.96 0.84 0.70 0.55 0.48 0.48 0.46 0.45 0.47 0.41 0.32 0.28 0.23 0.21 0.18 0.18 0.16 0.14 0.13 0.12 0.12 0.12 0.13 0.19 0.29 0.41 0.54 0.65 0.73 0.79 0.81 0.77 0.73 0.67 0.62 0.56 0.50 0.47 0.47 0.49 0.51 0.53 0.55
1.11 1.01 0.93 0.79 0.68 0.63 0.61 0.54 0.49 0.49 0.37 0.30 0.26 0.23 0.21 0.20 0.19 0.17 0.16 0.14 0.12 0.12 0.13 0.16 0.20 0.29 0.40 0.51 0.65 0.76 0.82 0.79 0.74 0.71 0.67 0.65 0.63 0.63 0.63 0.62 0.61 0.61 0.62
1.18 1.05 0.95 0.95 0.93 0.82 0.70 0.63 0.52 0.52 0.47 0.38 0.34 0.29 0.25 0.21 0.19 0.18 0.18 0.18 0.15 0.13 0.13 0.14 0.16 0.19 0.25 0.36 0.49 0.70 0.83 0.87 0.82 0.78 0.78 0.76 0.75 0.75 0.78 0.80 0.78 0.76 0.78
1.32 1.22 1.07 1.02 1.03 1.01 0.90 0.78 0.67 0.58 0.54 0.52 0.45 0.35 0.29 0.24 0.21 0.19 0.19 0.18 0.18 0.16 0.15 0.15 0.16 0.16 0.18 0.25 0.37 0.53 0.73 0.87 0.90 0.87 0.86 0.85 0.86 0.88 0.91 0.96 0.97 0.95 0.96
1.40 1.40 1.28 1.21 1.21 1.17 1.11 1.07 0.99 0.84 0.70 0.67 0.63 0.47 0.33 0.26 0.23 0.20 0.20 0.21 0.20 0.20 0.21 0.20 0.20 0.21 0.22 0.27 0.33 0.40 0.52 0.69 0.88 0.96 0.95 0.94 0.96 1.01 1.06 1.09 1.13 1.12 1.11
1.41 1.42 1.44 1.38 1.28 1.29 1.26 1.23 1.14 1.01 0.89 0.83 0.77 0.71 0.54 0.38 0.27 0.22 0.21 0.22 0.22 0.23 0.23 0.24 0.25 0.27 0.28 0.31 0.32 0.33 0.36 0.48 0.72 0.96 1.05 1.04 1.01 1.03 1.14 1.26 1.35 1.41 1.38
1.52 1.41 1.34 1.36 1.34 1.33 1.33 1.32 1.32 1.32 1.20 1.08 0.97 0.99 0.82 0.58 0.42 0.31 0.26 0.25 0.27 0.28 0.28 0.29 0.30 0.32 0.33 0.33 0.32 0.32 0.33 0.36 0.52 0.82 1.09 1.20 1.22 1.25 1.34 1.44 1.55 1.68 1.71
1.60 1.53 1.46 1.39 1.36 1.35 1.33 1.38 1.42 1.42 1.44 1.33 1.20 1.10 0.99 0.81 0.74 0.55 0.39 0.35 0.37 0.38 0.38 0.36 0.34 0.35 0.36 0.37 0.38 0.41 0.44 0.45 0.55 0.79 1.15 1.41 1.54 1.66 1.81 1.91 2.01 2.12 2.11
1.66 1.55 1.47 1.47 1.44 1.40 1.37 1.39 1.45 1.46 1.47 1.46 1.38 1.27 1.19 1.02 0.88 0.83 0.64 0.50 0.48 0.45 0.46 0.45 0.42 0.40 0.40 0.40 0.41 0.50 0.62 0.67 0.76 0.96 1.26 1.60 1.84 2.03 2.20 2.32 2.43 2.53 2.59
1.57 1.45 1.38 1.36 1.36 1.35 1.32 1.28 1.33 1.39 1.40 1.37 1.32 1.25 1.23 1.15 1.00 0.97 0.89 0.70 0.66 0.59 0.58 0.60 0.56 0.52 0.49 0.49 0.50 0.63 0.68 0.75 0.86 1.05 1.34 1.66 1.86 2.01 2.19 2.39 2.53 2.60 2.70
1.43 1.34 1.30 1.25 1.27 1.28 1.28 1.27 1.23 1.21 1.28 1.31 1.29 1.22 1.15 1.05 1.01 1.08 1.07 0.91 0.79 0.67 0.63 0.63 0.63 0.65 0.66 0.68 0.72 0.84 0.81 0.86 0.93 1.08 1.33 1.59 1.68 1.68 1.73 1.86 2.07 2.25 2.40
1.34 1.30 1.32 1.32 1.32 1.31 1.26 1.26 1.22 1.16 1.17 1.18 1.19 1.19 1.17 1.08 1.03 1.03 1.07 1.13 1.08 0.89 0.77 0.70 0.67 0.75 0.82 0.86 0.95 1.04 0.94 1.03 1.01 1.05 1.17 1.34 1.41 1.35 1.31 1.41 1.60 1.78 1.95
1.31 1.28 1.31 1.29 1.24 1.22 1.16 1.17 1.16 1.10 1.04 1.03 1.02 1.05 1.08 1.04 1.02 1.02 1.05 1.19 1.40 1.36 1.12 0.92 0.89 0.91 0.95 0.98 1.06 0.97 0.85 1.00 1.04 1.03 1.05 1.10 1.11 1.10 1.09 1.13 1.22 1.34 1.46
1.18 1.17 1.20 1.20 1.15 1.11 1.09 1.07 1.03 0.98 0.95 0.90 0.88 0.90 0.93 0.95 1.00 1.04 1.12 1.22 1.36 1.52 1.41 1.08 0.95 0.94 0.98 0.98 1.05 0.92 0.83 0.96 0.91 0.91 0.91 0.92 0.92 0.92 0.94 0.98 1.04 1.13 1.22
0.96 0.95 1.03 1.05 1.00 0.95 0.94 0.94 0.91 0.89 0.88 0.86 0.84 0.84 0.83 0.86 0.95 1.01 1.10 1.20 1.31 1.44 1.47 1.20 0.99 0.92 0.93 0.88 0.85 0.77 0.73 0.72 0.69 0.79 0.77 0.76 0.78 0.81 0.81 0.86 0.92 0.98 1.05
0.90 0.86 0.89 0.92 0.90 0.85 0.82 0.83 0.82 0.81 0.84 0.85 0.86 0.88 0.87 0.89 0.97 1.03 1.10 1.16 1.20 1.23 1.26 1.15 0.94 0.84 0.79 0.72 0.68 0.64 0.61 0.60 0.58 0.70 0.69 0.67 0.69 0.70 0.68 0.70 0.77 0.85 0.92
0.88 0.87 0.82 0.83 0.82 0.81 0.80 0.79 0.78 0.77 0.80 0.83 0.88 0.92 0.93 0.96 0.99 0.98 0.98 0.99 0.98 0.97 0.97 0.95 0.83 0.73 0.69 0.65 0.64 0.58 0.54 0.52 0.51 0.57 0.59 0.58 0.63 0.67 0.65 0.66 0.71 0.76 0.77
0.81 0.83 0.79 0.77 0.79 0.81 0.83 0.82 0.84 0.85 0.88 0.91 0.94 0.96 0.96 0.96 0.94 0.92 0.89 0.85 0.83 0.84 0.84 0.86 0.82 0.72 0.66 0.62 0.64 0.61 0.55 0.49 0.46 0.45 0.50 0.51 0.58 0.66 0.65 0.60 0.55 0.55 0.56
0.76 0.77 0.76 0.74 0.78 0.84 0.89 0.91 0.91 0.94 1.00 1.02 1.01 0.97 0.94 0.96 0.93 0.87 0.82 0.79 0.79 0.83 0.87 0.91 0.87 0.75 0.62 0.55 0.52 0.48 0.50 0.50 0.47 0.44 0.47 0.48 0.48 0.47 0.48 0.51 0.54 0.53 0.56
0.78 0.79 0.83 0.85 0.87 0.94 1.16 1.17 1.08 1.04 1.05 1.03 0.99 0.92 0.87 0.87 0.84 0.83 0.82 0.80 0.84 0.91 1.00 1.03 0.92 0.73 0.53 0.45 0.46 0.53 0.60 0.68 0.60 0.41 0.45 0.46 0.45 0.46 0.43 0.43 0.54 0.58 0.60
0.86 0.91 0.96 1.01 1.06 1.14 1.25 1.16 1.09 0.94 0.92 0.89 0.83 0.78 0.73 0.69 0.70 0.63 0.69 0.77 0.80 0.88 0.91 0.85 0.75 0.58 0.50 0.48 0.61 0.74 0.71 0.70 0.56 0.40 0.51 0.57 0.51 0.49 0.45 0.48 0.57 0.54 0.56
0.96 1.06 1.13 1.14 1.12 1.13 1.09 0.95 0.88 0.76 0.70 0.66 0.63 0.58 0.56 0.55 0.55 0.58 0.62 0.68 0.64 0.62 0.62 0.58 0.56 0.54 0.55 0.59 0.72 0.86 0.84 0.77 0.60 0.49 0.53 0.62 0.52 0.50 0.46 0.48 0.55 0.55 0.59
1.04 1.03 1.00 0.96 0.87 0.81 0.77 0.66 0.58 0.52 0.51 0.48 0.45 0.45 0.46 0.44 0.54 0.68 0.69 0.69 0.58 0.50 0.53 0.58 0.63 0.66 0.68 0.67 0.68 0.81 0.91 0.98 0.83 0.58 0.50 0.54 0.48 0.45 0.46 0.46 0.50 0.58 0.58
0.84 0.73 0.62 0.55 0.48 0.42 0.44 0.43 0.42 0.37 0.39 0.39 0.40 0.41 0.49 0.50 0.62 0.74 0.68 0.67 0.59 0.50 0.51 0.53 0.51 0.50 0.48 0.50 0.58 0.64 0.88 1.20 1.06 0.78 0.52 0.62 0.64 0.69 0.83 0.53 0.48 0.51 0.51